Regional Weather Roundup
Issued by NWS

Home | Current Version | Previous Version | Graphics & Text | Print | Product List | Glossary On
Versions: 1 2 3 4 5 6 7 8 9 10 11 12 13 14 15 16 17 18 19 20 21 22 23 24 25 26 27 28 29 30 31 32 33 34 35 36 37 38 39 40 41 42 43 44 45 46 47 48 49 50
000
ASUS43 KLOT 020808
RWRIL

ILLINOIS REGIONAL WEATHER ROUNDUP
NATIONAL WEATHER SERVICE CHICAGO/ROMEOVILLE IL
300 AM CDT THU JUL 02 2015

NOTE: "FAIR" INDICATES FEW OR NO CLOUDS BELOW 12,000 FEET WITH NO
SIGNIFICANT WEATHER AND/OR OBSTRUCTIONS TO VISIBILITY.

* THESE STATIONS ARE NOT UNDER NWS QUALITY CONTROL. THEY ALSO MAY NOT
  REPORT WEATHER SUCH AS PRECIPITATION OR FOG.

ILZ001-002-007-009-015-016-024-020900-
NORTHWEST ILLINOIS

CITY           SKY/WX    TMP DP  RH WIND       PRES   REMARKS
MOLINE         PTCLDY    60  55  83 E12       29.97F
STERLING*      CLEAR     54  52  94 NE7       30.00F
$$

ILZ003-004-008-010-011-017-018-020900-
NORTH CENTRAL ILLINOIS

CITY           SKY/WX    TMP DP  RH WIND       PRES   REMARKS
ROCKFORD       CLEAR     53  49  86 NE3       30.03F
$$

ILZ005-006-012>014-019>023-020900-
NORTHEAST ILLINOIS

CITY           SKY/WX    TMP DP  RH WIND       PRES   REMARKS
CHICAGO-OHARE  PTCLDY    53  50  89 NE6       30.00R
CHICAGO-MIDWAY CLOUDY    58  53  84 NE7       29.99S
AURORA         CLEAR     51  47  86 CALM      30.00F
JOLIET*        PTCLDY    54  52  92 N3        29.99S
WAUKEGAN       CLEAR     46  45  96 CALM      29.99F FOG
DUPAGE AIRPORT CLEAR     50  47  89 N8        29.99S
WHEELING       CLEAR     52  49  89 CALM      30.01S
ROMEOVILLE*    PTCLDY    53  50  90 N7        29.99S
NORTHERLY ISL    N/A     55  51  86 N7          N/A
$$

LMZ740>746-020900-
SOUTHERN LAKE MICHIGAN

STATION/POSITION SKY/WX   TEMP    WIND        PRES    VSBY  WAVE
                          AIR SEA DIR/SP/G                  HT/PER
                          (F)     (DEG/KT/KT) (MB)    (MI)  (FT/S)
HARRISON CRIB              55      40/ 11/ 13   N/A
BURNHAM HARBOR             55     350/  6/ 11   N/A
CALUMET HARBOR             55     360/  6/  9   N/A
BURNS HARBOR               58     350/  9/ 12 1015.9F
MICHIGAN CITY              59      30/ 11/ 12   N/A
MICHIGAN CITY 6N           59 64   60/  8/ 12   N/A           3/ 5
ST. JOSEPH                 57 63                N/A           3/ 5
$$

ILZ025>027-034>036-040-047-049-050-058-095>099-020900-
WEST-CENTRAL ILLINOIS

CITY           SKY/WX    TMP DP  RH WIND       PRES   REMARKS
QUINCY         PTCLDY    67  64  90 E10       29.88F
$$

ILZ028>032-037-038-041>044-048-051>054-059>061-020900-
CENTRAL ILLINOIS

CITY           SKY/WX    TMP DP  RH WIND       PRES   REMARKS
BLOOMINGTON    CLOUDY    59  55  86 NE12      29.97S
DECATUR        CLOUDY    60  56  86 NE9       29.91F
PEORIA         CLOUDY    63  53  70 NE10      29.95F
SPRINGFIELD    CLOUDY    66  57  72 NE16      29.91F
TAYLORVILLE    NOT AVBL
$$

ILZ033-039-045-046-055>057-062-063-020900-
EAST-CENTRAL ILLINOIS

CITY           SKY/WX    TMP DP  RH WIND       PRES   REMARKS
CHAMPAIGN      CLOUDY    61  53  75 NE8       29.93F
MATTOON        MOCLDY    60  56  86 NE8       29.89F
PARIS*         CLOUDY    63  54  72 NE7       29.91
$$

ILZ079-100>102-020900-
SOUTHWEST ILLINOIS

CITY           SKY/WX    TMP DP  RH WIND       PRES   REMARKS
BELLEVILLE     CLOUDY    72  72 100 N2        29.82F
CAHOKIA*       CLOUDY    72  70  93 CALM      29.83F
$$

ILZ064>066-069>071-074>076-080>082-084>086-088>090-092>094-020900-
SOUTH-CENTRAL ILLINOIS

CITY           SKY/WX    TMP DP  RH WIND       PRES   REMARKS
CARBONDALE     LGT RAIN  71  69  93 S12       29.86S
MT. VERNON     CLOUDY    73  68  83 SE5       29.86S
CENTRALIA*     LGT RAIN  72  69  92 E3        29.84R
$$

ILZ067-068-072-073-078-083-087-091-020900-
SOUTHEAST ILLINOIS

CITY           SKY/WX    TMP DP  RH WIND       PRES   REMARKS
LAWRENCEVILLE  CLOUDY    69  69 100 CALM      29.86F
$$

ABBREVIATIONS USED IN REMARKS
   TC - TEMPERATURE IN CELSIUS
  WCI - WIND CHILL INDEX
   HX - HEAT INDEX
  VSB - VISIBILITY
$$




USA.gov is the U.S. government's official web portal to all federal, state and local government web resources and services.